Simultaneous Nadir Overpasses (SNOs) Predictions

Prediction of SNOs between GOES-17 and METOP-C Satellite Orbit:

Table of predicted SNOs for the next 14.0 days since TLE Epoch: 5/21/2022
Index Date Time (GOES-17) GOES-17 Lat,Lon METOP-C Lat,Lon Distance(km) Time Diff (sec)
1 05/21/2022 06:31:11 -0.04,-137.17 0.53,-134.75 277.05 80
2 05/22/2022 18:47:20 0.03,-137.17 0.48,-139.30 242.40 80
3 05/23/2022 18:29:20 0.03,-137.16 -0.62,-134.30 326.28 80
4 05/25/2022 06:45:39 -0.03,-137.14 -0.44,-138.89 199.63 80
5 05/26/2022 06:27:39 -0.03,-137.14 0.67,-133.90 368.87 80
6 05/27/2022 18:43:48 0.03,-137.13 0.32,-138.45 150.96 80
7 05/28/2022 18:25:47 0.03,-137.11 -0.79,-133.45 417.19 80
8 05/30/2022 06:44:47 -0.02,-137.09 -0.26,-138.04 109.80 80
9 05/31/2022 06:21:26 -0.02,-137.07 0.86,-133.05 457.81 80
10 06/01/2022 18:40:15 0.01,-137.05 0.12,-137.61 63.50 80
